sat.trackr.live / text

‹ back to catalog

STARLINK-36938

NORAD 68124 · 2026-044Z

PAYLOAD ACTIVE UNKNOWN

§ Identity

Operator
Country
US
Launch date
2026-03-08
Launch site
AFWTR
Launch vehicle
Mass (kg)
RCS (m²)

Purposes: comms

External: N2YO · Heavens-Above · Gunter

§ Orbital elements

Epoch: 2026-05-25T04:00:03.998880Z

Period
93.74 min
Inclination
97.2832°
Eccentricity
0.0002315
Mean motion
15.36182889 rev/d
Perigee alt
455.8 km
Apogee alt
459.0 km
Semi-major
6,835.5 km
B*
-7.6380e-2
RAAN
108.7771°
Arg perigee
105.2085°
Mean anomaly
75.1139°
Rev number
594

§ Raw data

STARLINK-369381 68124U 26044Z   26145.16671295 -.02390266  00000+0 -76380-1 0  99962 68124  97.2832 108.7771 0002315 105.2085  75.1139 15.36182889  5942

JSON: /api/v1/satellites/68124 · /tle

For live sub-satellite position, see the globe view (requires WebGL).

§ Visibility from observer

Set your observer location to see the next 7 days of passes ≥ 10°. The values pass through the URL so the page stays shareable.

No JS? Fill the form by hand. The geolocation button needs JavaScript.